Shelbyville, IN

5:26 AM EST on November 19, 2017 (GMT -0500)
Shelbyville Municipal

Weather History for KGEZ - March, 2013

Change the Weather History Date:

Friday, March 15, 2013

  Actual Average Record
Temperature  
Mean Temperature 41 °F 42 °F  
Max Temperature 52 °F 51 °F 82 °F (2012)
Min Temperature 30 °F 32 °F 19 °F (2017)
Degree Days  
Heating Degree Days 24 24  
Month to date heating degree days 418 396  
Since 1 July heating degree days 4220 4559  
Cooling Degree Days 0 0  
Month to date cooling degree days 0 0  
Year to date cooling degree days 0 0  
Moisture  
Dew Point 32 °F    
Average Humidity 73    
Maximum Humidity 92    
Minimum Humidity 54    
Precipitation  
Precipitation 0.01 in 0.11 in 1.02 in (2007)
Month to date precipitation 0.28 1.36  
Year to date precipitation 5.48 6.11  
Sea Level Pressure  
Sea Level Pressure 29.98 in    
Wind  
Wind Speed 6 mph (South)    
Max Wind Speed 9 mph    
Max Gust Speed -    
Visibility 6 miles    
Events Fog , Rain    
T = Trace of Precipitation, MM = Missing Value Source: NWS Daily Summary

Daily Weather History Graph

Daily Weather History Graph

Search for Another Location

Airport or City:

Trip Planner

Search our weather history database for the weather conditions in past years. The results will help you decide how hot, cold, wet, or windy it might be!

Date:

Astronomy

Mar. 15, 2013 Rise Set
Actual Time 7:54 AM EDT 7:50 PM EDT
Civil Twilight 7:27 AM EDT 8:17 PM EDT
Nautical Twilight 6:56 AM EDT 8:48 PM EDT
Astronomical Twilight 6:24 AM EDT 9:20 PM EDT
Moon 9:45 AM EDT (3/15) No Moon Set
Length of Visible Light 12h 49m
Length of Day
11h 56m
Waxing Crescent, 15% of the Moon is Illuminated
Mar 15
Waxing Crescent
Mar 19
First Quarter
Mar 27
Full
Apr 3
Last Quarter
Apr 10
New

Hourly Weather History & Observations

Time (EDT) Temp. Windchill Dew Point Humidity Pressure Visibility Wind Dir Wind Speed Gust Speed Precip Events Conditions
12:53 AM 33.1 °F 27.7 °F 28.9 °F 85% 30.15 in 8.0 mi SSW 5.8 mph - N/A   Clear
1:53 AM 32.0 °F 26.4 °F 28.9 °F 88% 30.13 in 6.0 mi South 5.8 mph - N/A   Clear
2:53 AM 32.0 °F 25.6 °F 28.9 °F 88% 30.12 in 5.0 mi South 6.9 mph - N/A   Partly Cloudy
3:11 AM 32.0 °F 24.8 °F 28.4 °F 87% 30.08 in 4.0 mi South 8.1 mph - N/A   Scattered Clouds
3:20 AM 33.8 °F 25.3 °F 30.2 °F 87% 30.07 in 3.0 mi South 11.5 mph - N/A   Mostly Cloudy
3:34 AM 33.8 °F 25.3 °F 30.2 °F 87% 30.06 in 2.0 mi South 11.5 mph - N/A   Overcast
3:51 AM 32.0 °F 23.6 °F 30.2 °F 93% 30.04 in 1.2 mi South 10.4 mph - N/A   Overcast
3:53 AM 32.0 °F 24.2 °F 30.0 °F 92% 30.06 in 1.2 mi South 9.2 mph - N/A   Overcast
4:07 AM 32.0 °F 24.8 °F 30.2 °F 93% 30.04 in 0.5 mi South 8.1 mph - N/A Fog Fog
4:20 AM 32.0 °F 24.2 °F 30.2 °F 93% 30.04 in 1.5 mi South 9.2 mph - N/A   Overcast
4:45 AM 33.8 °F 27.7 °F 30.2 °F 87% 30.03 in 2.5 mi South 6.9 mph - N/A   Overcast
4:53 AM 33.1 °F 27.7 °F 30.0 °F 89% 30.05 in 3.0 mi South 5.8 mph - N/A   Overcast
5:33 AM 32.0 °F - 28.4 °F 87% 30.03 in 3.0 mi Calm Calm - N/A   Scattered Clouds
5:53 AM 30.9 °F 27.5 °F 28.0 °F 89% 30.04 in 3.0 mi SSE 3.5 mph - N/A   Partly Cloudy
6:10 AM 30.2 °F 26.7 °F 26.6 °F 86% 30.02 in 2.5 mi SE 3.5 mph - N/A   Clear
6:53 AM 30.0 °F 25.2 °F 28.0 °F 92% 30.03 in 3.0 mi South 4.6 mph - N/A   Clear
7:53 AM 30.9 °F 25.2 °F 28.0 °F 89% 30.01 in 4.0 mi South 5.8 mph - N/A   Clear
8:53 AM 33.1 °F 28.7 °F 30.0 °F 89% 30.00 in 4.0 mi South 4.6 mph - N/A   Clear
9:53 AM 35.1 °F 29.3 °F 30.9 °F 85% 29.99 in 4.0 mi South 6.9 mph - N/A   Clear
10:53 AM 36.0 °F 30.3 °F 32.0 °F 86% 29.98 in 5.0 mi SSW 6.9 mph - N/A   Clear
11:53 AM 39.9 °F 35.1 °F 33.1 °F 77% 29.97 in 8.0 mi WSW 6.9 mph - N/A   Clear
12:53 PM 43.0 °F 39.5 °F 33.1 °F 68% 29.95 in 9.0 mi SW 5.8 mph - N/A   Clear
1:53 PM 46.0 °F 42.5 °F 34.0 °F 63% 29.95 in 10.0 mi SW 6.9 mph - N/A   Clear
2:53 PM 48.9 °F - 35.1 °F 59% 29.92 in 10.0 mi SW 6.9 mph - N/A   Partly Cloudy
3:53 PM 50.0 °F - 35.1 °F 57% 29.89 in 10.0 mi SSW 9.2 mph - N/A   Mostly Cloudy
4:53 PM 52.0 °F - 36.0 °F 54% 29.88 in 10.0 mi SW 9.2 mph - N/A   Overcast
5:53 PM 51.1 °F - 36.0 °F 56% 29.87 in 10.0 mi SW 5.8 mph - N/A   Overcast
6:53 PM 51.1 °F - 37.9 °F 61% 29.84 in 10.0 mi SE 3.5 mph - N/A   Overcast
7:53 PM 48.9 °F - 37.9 °F 66% 29.85 in 10.0 mi SE 3.5 mph - N/A   Overcast
8:53 PM 48.0 °F - 39.0 °F 71% 29.81 in 10.0 mi East 8.1 mph - 0.00 in   Overcast
9:53 PM 46.9 °F - 37.9 °F 71% 29.79 in 10.0 mi East 9.2 mph - N/A   Overcast
10:53 PM 46.9 °F - 37.9 °F 71% 29.75 in 10.0 mi East 10.4 mph - 0.00 in Rain Light Rain
11:53 PM 46.0 °F 41.0 °F 39.0 °F 76% 29.74 in 10.0 mi East 10.4 mph - 0.00 in Rain Light Rain